| time (UTC) | temp F | wind direction | speed MPH | gust MPH | rain 1hr in | rain 24hr in | rain mn in | humidity % | barometer mb |
| 20260502181430 | 66 | 78 | 8.0 | 10.0 | 0.00 | 0.00 | 0.00 | 39 | 1019.8 |
| 20260502180427 | 66 | 82 | 6.0 | 8.0 | 0.00 | 0.00 | 0.00 | 39 | 1019.9 |
| 20260502170438 | 69 | 88 | 7.0 | 10.0 | 0.00 | 0.00 | 0.00 | 35 | 1020.2 |
| 20260502163430 | 70 | 93 | 5.0 | 8.0 | 0.00 | 0.00 | 0.00 | 29 | 1020.5 |
| 20260502162427 | 70 | 86 | 14.0 | 18.0 | 0.00 | 0.00 | 0.00 | 31 | 1020.6 |
| 20260502161424 | 70 | 79 | 10.0 | 13.0 | 0.00 | 0.00 | 0.00 | 28 | 1020.7 |
| 20260502160424 | 71 | 91 | 13.0 | 19.0 | 0.00 | 0.00 | 0.00 | 30 | 1020.6 |
| 20260502151437 | 72 | 94 | 13.0 | 19.0 | 0.00 | 0.00 | 0.00 | 30 | 1021.2 |
| 20260502150434 | 72 | 87 | 7.0 | 9.0 | 0.00 | 0.00 | 0.00 | 28 | 1021.5 |
| 20260502130451 | 74 | 74 | 6.0 | 9.0 | 0.00 | 0.00 | 0.00 | 32 | 1022.6 |
| 20260502123424 | 73 | 64 | 12.0 | 21.0 | 0.00 | 0.00 | 0.00 | 35 | 1022.7 |
| 20260502122425 | 73 | 89 | 7.0 | 9.0 | 0.00 | 0.00 | 0.00 | 39 | 1022.9 |
| 20260502121505 | 73 | 86 | 10.0 | 13.0 | 0.00 | 0.00 | 0.00 | 37 | 1023.0 |
| 20260502120443 | 72 | 83 | 4.0 | 8.0 | 0.00 | 0.00 | 0.00 | 42 | 1023.1 |
| 20260502115442 | 72 | 70 | 7.0 | 13.0 | 0.00 | 0.00 | 0.00 | 40 | 1023.3 |
| 20260502114437 | 72 | 82 | 9.0 | 11.0 | 0.00 | 0.00 | 0.00 | 43 | 1023.3 |
| 20260502113436 | 71 | 83 | 8.0 | 11.0 | 0.00 | 0.00 | 0.00 | 42 | 1023.5 |
| 20260502112431 | 70 | 93 | 11.0 | 13.0 | 0.00 | 0.00 | 0.00 | 41 | 1023.5 |
| 20260502111428 | 70 | 92 | 8.0 | 9.0 | 0.00 | 0.00 | 0.00 | 43 | 1023.7 |
| 20260502110426 | 70 | 81 | 7.0 | 13.0 | 0.00 | 0.00 | 0.00 | 46 | 1023.7 |
| 20260502105450 | 69 | 103 | 5.0 | 10.0 | 0.00 | 0.00 | 0.00 | 42 | 1024.0 |
| 20260502104424 | 69 | 62 | 7.0 | 10.0 | 0.00 | 0.00 | 0.00 | 43 | 1023.9 |
| 20260502103424 | 69 | 81 | 4.0 | 6.0 | 0.00 | 0.00 | 0.00 | 46 | 1024.2 |
| 20260502102444 | 68 | 81 | 4.0 | 7.0 | 0.00 | 0.00 | 0.00 | 46 | 1024.2 |
| 20260502101441 | 68 | 346 | 4.0 | 7.0 | 0.00 | 0.00 | 0.00 | 47 | 1024.2 |
| 20260502100439 | 67 | 42 | 6.0 | 9.0 | 0.00 | 0.00 | 0.00 | 47 | 1024.5 |
| 20260502091446 | 64 | 32 | 3.0 | 4.0 | 0.00 | 0.00 | 0.00 | 53 | 1025.0 |
| 20260502090424 | 64 | 118 | 3.0 | 8.0 | 0.00 | 0.00 | 0.00 | 56 | 1025.0 |
| 20260502071426 | 57 | 148 | 3.0 | 4.0 | 0.00 | 0.00 | 0.00 | 62 | 1025.7 |
| 20260502070424 | 56 | 121 | 3.0 | 4.0 | 0.00 | 0.00 | 0.00 | 62 | 1025.8 |
| 20260502065444 | 56 | 158 | 1.0 | 2.0 | 0.00 | 0.00 | 0.00 | 64 | 1025.9 |
| 20260502064440 | 56 | 141 | 1.0 | 2.0 | 0.00 | 0.00 | 0.00 | 63 | 1026.0 |
| 20260502063438 | 56 | 121 | 2.0 | 3.0 | 0.00 | 0.00 | 0.00 | 64 | 1026.0 |
| 20260502062436 | 56 | 101 | 0.0 | 1.0 | 0.00 | 0.00 | 0.00 | 64 | 1026.1 |
| 20260502061434 | 59 | 104 | 1.0 | 1.0 | 0.00 | 0.00 | 0.00 | 59 | 1026.1 |
| 20260502060449 | 58 | 141 | 1.0 | 2.0 | 0.00 | 0.00 | 0.00 | 60 | 1025.7 |
| 20260502055428 | 57 | 0.0 | 0.0 | 0.00 | 0.00 | 0.00 | 64 | 1025.9 | |
| 20260502054426 | 54 | 163 | 1.0 | 1.0 | 0.00 | 0.00 | 0.00 | 64 | 1025.9 |
| 20260502053424 | 55 | 173 | 2.0 | 3.0 | 0.00 | 0.00 | 0.00 | 63 | 1025.8 |
| 20260502052424 | 54 | 140 | 3.0 | 6.0 | 0.00 | 0.00 | 0.00 | 66 | 1026.2 |
| 20260502051445 | 53 | 124 | 2.0 | 2.0 | 0.00 | 0.00 | 0.00 | 66 | 1026.1 |
| 20260502050442 | 51 | 138 | 2.0 | 3.0 | 0.00 | 0.00 | 0.00 | 69 | 1026.1 |
| 20260502045441 | 49 | 133 | 2.0 | 3.0 | 0.00 | 0.00 | 0.00 | 72 | 1025.9 |
| 20260502044456 | 48 | 161 | 1.0 | 2.0 | 0.00 | 0.00 | 0.00 | 73 | 1026.0 |
| 20260502043435 | 47 | 141 | 2.0 | 3.0 | 0.00 | 0.00 | 0.00 | 77 | 1026.0 |
| 20260502042430 | 45 | 159 | 4.0 | 4.0 | 0.00 | 0.00 | 0.00 | 80 | 1025.7 |
| 20260502041427 | 44 | 169 | 3.0 | 3.0 | 0.00 | 0.00 | 0.00 | 83 | 1025.9 |
| 20260502040425 | 42 | 166 | 3.0 | 4.0 | 0.00 | 0.00 | 0.00 | 85 | 1025.9 |
| 20260502035424 | 40 | 141 | 4.0 | 6.0 | 0.00 | 0.00 | 0.00 | 85 | 1025.8 |
| 20260502034425 | 40 | 183 | 5.0 | 7.0 | 0.00 | 0.00 | 0.00 | 85 | 1026.0 |
| 20260502033424 | 40 | 160 | 4.0 | 6.0 | 0.00 | 0.00 | 0.00 | 84 | 1025.8 |
| 20260502032443 | 40 | 154 | 4.0 | 6.0 | 0.00 | 0.00 | 0.00 | 84 | 1025.8 |
| 20260502031442 | 40 | 155 | 5.0 | 7.0 | 0.00 | 0.00 | 0.00 | 83 | 1025.9 |
| 20260502030438 | 40 | 171 | 4.0 | 6.0 | 0.00 | 0.00 | 0.00 | 84 | 1025.9 |
| 20260502025435 | 40 | 185 | 3.0 | 4.0 | 0.00 | 0.00 | 0.00 | 82 | 1026.0 |
| 20260502024432 | 40 | 173 | 4.0 | 7.0 | 0.00 | 0.00 | 0.00 | 82 | 1026.1 |
| 20260502023429 | 41 | 177 | 3.0 | 4.0 | 0.00 | 0.00 | 0.00 | 81 | 1026.3 |
| 20260502022427 | 41 | 156 | 5.0 | 6.0 | 0.00 | 0.00 | 0.00 | 81 | 1026.5 |
| 20260502021424 | 41 | 172 | 3.0 | 6.0 | 0.00 | 0.00 | 0.00 | 80 | 1026.2 |
| 20260502020423 | 42 | 151 | 5.0 | 6.0 | 0.00 | 0.00 | 0.00 | 79 | 1026.2 |
| 20260502015424 | 42 | 177 | 4.0 | 7.0 | 0.00 | 0.00 | 0.00 | 79 | 1026.2 |
| 20260502014447 | 42 | 141 | 4.0 | 6.0 | 0.00 | 0.00 | 0.00 | 78 | 1026.2 |
| 20260502013444 | 42 | 159 | 3.0 | 3.0 | 0.00 | 0.00 | 0.00 | 78 | 1026.5 |
| 20260502012440 | 42 | 160 | 4.0 | 6.0 | 0.00 | 0.00 | 0.00 | 78 | 1026.3 |
| 20260502011437 | 42 | 154 | 4.0 | 6.0 | 0.00 | 0.00 | 0.00 | 77 | 1026.5 |
| 20260502010456 | 43 | 170 | 4.0 | 6.0 | 0.00 | 0.00 | 0.00 | 77 | 1026.7 |
| 20260502005431 | 44 | 165 | 3.0 | 4.0 | 0.00 | 0.00 | 0.00 | 75 | 1026.7 |
| 20260502004450 | 44 | 169 | 3.0 | 4.0 | 0.00 | 0.00 | 0.00 | 74 | 1026.6 |
| 20260502003427 | 44 | 153 | 4.0 | 6.0 | 0.00 | 0.00 | 0.00 | 74 | 1027.0 |
| 20260502002445 | 45 | 158 | 4.0 | 4.0 | 0.00 | 0.00 | 0.00 | 74 | 1026.8 |
| 20260502001424 | 44 | 165 | 3.0 | 4.0 | 0.00 | 0.00 | 0.00 | 73 | 1026.7 |
| 20260502000424 | 44 | 162 | 4.0 | 6.0 | 0.00 | 0.00 | 0.00 | 73 | 1026.9 |
| 20260501235444 | 45 | 166 | 2.0 | 6.0 | 0.00 | 0.00 | 0.00 | 74 | 1027.0 |
| 20260501234503 | 45 | 143 | 3.0 | 4.0 | 0.00 | 0.00 | 0.00 | 73 | 1027.2 |
| 20260501233439 | 45 | 169 | 4.0 | 4.0 | 0.00 | 0.00 | 0.00 | 73 | 1027.4 |
| 20260501232436 | 45 | 189 | 3.0 | 4.0 | 0.00 | 0.00 | 0.00 | 72 | 1027.4 |
| 20260501231513 | 45 | 162 | 3.0 | 4.0 | 0.00 | 0.00 | 0.00 | 72 | 1027.4 |
| 20260501230430 | 45 | 158 | 3.0 | 3.0 | 0.00 | 0.00 | 0.00 | 71 | 1027.4 |
| 20260501225429 | 45 | 166 | 4.0 | 4.0 | 0.00 | 0.00 | 0.00 | 70 | 1027.5 |
| 20260501224426 | 46 | 173 | 3.0 | 4.0 | 0.00 | 0.00 | 0.00 | 70 | 1027.4 |
| 20260501223425 | 46 | 174 | 3.0 | 4.0 | 0.00 | 0.00 | 0.00 | 68 | 1027.5 |
| 20260501222425 | 47 | 191 | 2.0 | 4.0 | 0.00 | 0.00 | 0.00 | 69 | 1027.3 |
| 20260501221424 | 47 | 182 | 3.0 | 4.0 | 0.00 | 0.00 | 0.00 | 68 | 1027.5 |
| 20260501220445 | 47 | 155 | 3.0 | 4.0 | 0.00 | 0.00 | 0.00 | 67 | 1027.5 |
| 20260501215442 | 47 | 159 | 2.0 | 3.0 | 0.00 | 0.00 | 0.00 | 68 | 1027.4 |
| 20260501214438 | 47 | 152 | 3.0 | 3.0 | 0.00 | 0.00 | 0.00 | 66 | 1027.5 |
| 20260501213437 | 48 | 172 | 3.0 | 4.0 | 0.00 | 0.00 | 0.00 | 65 | 1027.4 |
| 20260501212432 | 48 | 157 | 4.0 | 4.0 | 0.00 | 0.00 | 0.00 | 65 | 1027.5 |
| 20260501211429 | 49 | 160 | 3.0 | 3.0 | 0.00 | 0.00 | 0.00 | 64 | 1027.4 |
| 20260501210427 | 49 | 172 | 3.0 | 4.0 | 0.00 | 0.00 | 0.00 | 64 | 1027.6 |
| 20260501205445 | 49 | 176 | 3.0 | 3.0 | 0.00 | 0.00 | 0.00 | 65 | 1027.6 |
| 20260501204424 | 49 | 159 | 2.0 | 3.0 | 0.00 | 0.00 | 0.00 | 63 | 1027.5 |
| 20260501203425 | 50 | 151 | 3.0 | 4.0 | 0.00 | 0.00 | 0.00 | 61 | 1027.4 |
| 20260501202447 | 50 | 163 | 3.0 | 3.0 | 0.00 | 0.00 | 0.00 | 60 | 1027.6 |
| 20260501201502 | 51 | 160 | 2.0 | 3.0 | 0.00 | 0.00 | 0.00 | 58 | 1027.6 |
| 20260501200439 | 52 | 151 | 2.0 | 3.0 | 0.00 | 0.00 | 0.00 | 58 | 1027.7 |
| 20260501195454 | 53 | 146 | 3.0 | 3.0 | 0.00 | 0.00 | 0.00 | 57 | 1027.6 |
| 20260501194441 | 53 | 166 | 2.0 | 3.0 | 0.00 | 0.00 | 0.00 | 54 | 1027.4 |
| 20260501193448 | 54 | 144 | 3.0 | 3.0 | 0.00 | 0.00 | 0.00 | 54 | 1027.3 |
| 20260501192451 | 55 | 147 | 2.0 | 2.0 | 0.00 | 0.00 | 0.00 | 53 | 1027.3 |
| 20260501191453 | 55 | 172 | 1.0 | 2.0 | 0.00 | 0.00 | 0.00 | 51 | 1027.3 |
| 20260501190444 | 56 | 147 | 1.0 | 2.0 | 0.00 | 0.00 | 0.00 | 51 | 1027.4 |
| 20260501185442 | 56 | 146 | 2.0 | 2.0 | 0.00 | 0.00 | 0.00 | 51 | 1027.4 |
| 20260501184505 | 56 | 141 | 1.0 | 1.0 | 0.00 | 0.00 | 0.00 | 51 | 1027.2 |
| 20260501183529 | 56 | 135 | 1.0 | 2.0 | 0.00 | 0.00 | 0.00 | 51 | 1027.2 |
| 20260501182513 | 57 | 147 | 2.0 | 2.0 | 0.00 | 0.00 | 0.00 | 50 | 1027.3 |